Regional Weather Roundup
Issued by NWS Cleveland, OH

Home | Current Version | Previous Version | Graphics & Text | Print | Product List | Glossary On
Versions: 1 2 3 4 5 6 7 8 9 10 11 12 13 14 15 16 17 18 19 20 21 22 23 24 25 26 27 28 29 30 31 32 33 34 35 36 37 38 39 40 41 42 43 44 45 46 47 48 49 50
000
ASUS41 KCLE 240210
RWRCLE
OHIO REGIONAL WEATHER ROUNDUP
NATIONAL WEATHER SERVICE WILMINGTON, OH
900 PM EST TUE JAN 23 2018

NOTE: "FAIR" INDICATES FEW OR NO CLOUDS BELOW 12,000 FEET WITH NO
SIGNIFICANT WEATHER AND/OR OBSTRUCTIONS TO VISIBILITY.

OHZ001>008-015>018-024>027-034-035-043-044-240300-
   NORTHWEST OHIO

CITY           SKY/WX    TMP DP  RH WIND       PRES   REMARKS
DEFIANCE       CLOUDY    31  25  78 W9G18     29.99R WCI  23
FINDLAY        CLOUDY    32  25  75 W16       29.97R WCI  21
TOLEDO EXPRESS CLOUDY    31  28  89 W15G22    29.95R WCI  20
TOLEDO EXEC    CLOUDY    32  27  81 W17G28    29.96R WCI  21
LIMA           CLOUDY    31  27  85 W21G28    29.99R WCI  18
$$

OHZ009>014-019>023-028>033-038-089-240300-
   NORTHEAST OHIO

CITY           SKY/WX    TMP DP  RH WIND       PRES   REMARKS
CLE-HOPKINS    FLURRIES  34  28  79 W18G28    29.93R WCI  23
CLE-LAKEFRONT  CLOUDY    34  28  79 W24G31    29.90R WCI  21
CUY CO. ARPT   CLOUDY    34  30  86 W28G35    29.90R WCI  20
LORAIN-ELYRIA  CLOUDY    32  24  72 W13       29.93R WCI  22
ASHTABULA      CLOUDY    32  29  88 W22G32    29.86R WCI  19
AKRON-CANTON   CLOUDY    34  28  79 W18G25    29.90R WCI  23
WOOSTER        CLOUDY    32  28  85 W15G25    29.92R WCI  22
MANSFIELD      CLOUDY    31  28  89 W15G26    29.93R WCI  20
YOUNGSTOWN     LGT SNOW  33  31  92 W14       29.86R FOG     WCI  23
$$

OHZ042-051>053-060>062-070>072-077>081-240300-
  SOUTHWEST OHIO

CITY           SKY/WX    TMP DP  RH WIND       PRES   REMARKS
CINC-COVINGTON LGT SNOW  34  32  92 W18       30.07R FOG     WCI  23
CINC-LUNKEN    CLOUDY    37  32  82 W12       30.09R
HAMILTON       CLOUDY    36  33  89 W10       30.08R
DAYTON         CLOUDY    33  31  92 W14       30.03R WCI  23
WRIGHT-PAT AFB CLOUDY    34  32  93 W13       30.02R WCI  25
DAYTON GENERAL LGT SNOW  33  31  92 W13       30.03R FOG     WCI  24
WILMINGTON     CLOUDY    34  33  96 W15       30.02R WCI  24
$$

OHZ036-037-039>041-045>050-054>059-063>069-073>076-082>088-240300-
  CENTRAL AND SOUTHEAST OHIO

CITY           SKY/WX    TMP DP  RH WIND       PRES   REMARKS
COLUMBUS       CLOUDY    36  31  82 W18       29.99R
OSU AIRPORT    CLOUDY    35  31  85 W13G21    29.99R WCI  26
BOLTON FIELD   CLOUDY    35  31  85 W8        30.00R WCI  29
RICKENBACK AFB CLOUDY    35  33  91 W9        30.01R WCI  28
NEWARK         CLOUDY    36  29  75 W12G20    29.98R
MARION         CLOUDY    32  27  81 NW18G29   29.98R WCI  20
LANCASTER      CLOUDY    36  32  85 W8        30.00R
ZANESVILLE     CLOUDY    38  30  73 W12G21    29.97R
NEW PHILLY     CLOUDY    36  30  79 W12G23    29.95R
$$




USA.gov is the U.S. government's official web portal to all federal, state and local government web resources and services.